STARLINK-1043, 44748

Orbit data source: Space-Track

STARLINK-1043, 44748 is a payload satellite owned by SpaceX/Seattle (US) in LEO that was launched on Mon, 11 Nov 2019 UTC via an FALCON 9 launch vehicle from the Air Force Eastern Test Range (AFETR). Payload-class satellites include a variety of spacecraft equipped with specific instruments for various scientific and technological missions. These include communications satellites like Starlink; space stations such as the ISS; scientific satellites like the Hubble; Earth observation satellites from companies like Planet Labs, Umbra, and HawkEye 360; GPS; miniature CubeSats for education and research; and military/defense satellites.

Loading next visibility...
Identifier
44748, 2019-074AM
Orbit
LEO
Country
Flag of USUS
Related business
Manufacturer
SpaceX/Seattle
Mission
Partially operational Commercial Communications
Bus & Motor
STARLINK, Unknown motor
Mass
260 kg wet, ~248 kg dry
Launch date (UTC)
2019-11-11 (6 years ago)
Launch vehicle
FALCON 9
Launch site
Air Force Eastern Test Range (AFETR)
Object type
Payload
Rocket body
Debris
Shape & HBR
Box + 1 Pan, 10.1 m
Radar Cross Section
13.562 m², Large (>1 m²)

Expand to show TLE details & history
Last TLE update: 18 hours ago

TLE from 18 hours ago
0 STARLINK-1043
1 44748U 19074AM  25353.89324875  .00058578  00000-0  12244-2 0  9990
2 44748  53.0534 217.3291 0003122 124.3724 235.7578 15.44949858336270
Epoch: 2025-12-19T21:26Z
TLE epoch observation values (Epoch: 2025-12-19T21:26:16.692Z)
Latitude
-0°
Longitude
167.03168°
Altitude
433.616 km
Speed
7.652 km/s
True Right ascension
14h 29m 18s
True Declination
0° 00' 00"
Sunlit
Object was in daylight at epoch
Visualization orbit readout
Latitude
Unknown
Longitude
Unknown
Altitude
Unknown
Speed
Unknown
Apparent Right ascension
Unknown
Apparent Declination
Unknown
Sunlit
N/A
Visualization observer readout
Local Sidereal Time
14:19:13
Azimuth
Unknown
Elevation
Unknown
Doppler factor
Unknown
Orbital elements
Apogee altitude
433.927 km
Perigee altitude
429.675 km
Semi-major axis
6,809.938 km
Eccentricity
0.00031
Inclination
53.0534°
RAAN
217.3291°
Arg. of periapsis
124.3724°
True anomaly
235.72823°
Mean anomaly
235.7578°
Eccentric anomaly
235.74302°
Mean motion
3.86214 °/min
Orbital period
93.21 mins
BSTAR
0.0012244
Loading maneuver chart data...
Computing Atmospheric mass density...

Documentation

Showing up to 5 results
|